Inquirer Daily News

Weather

Get conditions and forecasts for any City, State, ZIP code or Country:  
Trenton, NJ
on Saturday, February 2, 2013

Saturday
Previous Day Next Day
Daily Summary
 ActualAverageRecord
Temperature
Mean Temperature °F 32°F  
Max Temperature 29°F 40°F 61°F (1973)
Min Temperature 17°F 24°F -4°F (1881)
Degree Days
Heating Degree Days 42 33  
Month to date heating degree days 80 66  
Since 1 July heating degree days 2788 3012  
Cooling Degree Days 0 0  
Month to date cooling degree days 0 0  
Year to date cooling degree days 0 0  
Moisture
Dew Point 10°F   
Average Humidity 62    
Maximum Humidity 88    
Minimum Humidity 35    
Precipitation
Precipitation 0.01 in 0.08 in 2.49 in (1973)
Month to date precipitation 0.01 0.15  
Year to date precipitation 2.83 3.31  
Wind
Wind Speed 7 mph   
Max Wind Speed 16 mph   
Max Gust Speed 22 mph   
Visibility 8 miles   
Events Snow   

Key: T is trace of precipitation, MM is missing value
Source: NWS Daily Summary
Time(EST)TemperatureDew PointHumidity Pressure Visibility Wind DirectionWind SpeedGust SpeedPrecipitationEvents Conditions
12:53 AM 21.0°F 5.0°F 50% 30.27 in 10.0 miles WNW 8.1 mph - N/A   Clear
1:53 AM 19.9°F 5.0°F 52% 30.28 in 10.0 miles NW 9.2 mph - N/A   Clear
2:53 AM 19.9°F 3.9°F 50% 30.30 in 10.0 miles WNW 9.2 mph - N/A   Clear
4:53 AM 18.0°F 5.0°F 57% 30.29 in 10.0 miles NW 4.6 mph - N/A   Clear
5:53 AM 17.1°F 6.1°F 62% 30.29 in 10.0 miles Calm Calm - N/A   Clear
7:53 AM 18.0°F 3.9°F 54% 30.30 in 10.0 miles WNW 5.8 mph - N/A   Clear
8:53 AM 19.9°F 3.0°F 48% 30.31 in 10.0 miles WNW 6.9 mph - N/A   Clear
9:53 AM 21.9°F 3.9°F 46% 30.28 in 10.0 miles Variable 6.9 mph - N/A   Clear
10:53 AM 25.0°F 5.0°F 43% 30.26 in 10.0 miles West 9.2 mph - N/A   Clear
11:53 AM 25.0°F 5.0°F 43% 30.23 in 10.0 miles West 8.1 mph 17.3 mph N/A   Partly Cloudy
12:53 PM 28.0°F 5.0°F 38% 30.19 in 10.0 miles West 10.4 mph - N/A   Partly Cloudy
1:53 PM 28.0°F 5.0°F 38% 30.16 in 10.0 miles West 10.4 mph 20.7 mph N/A   Clear
2:53 PM 28.0°F 5.0°F 38% 30.14 in 10.0 miles West 10.4 mph 17.3 mph N/A   Overcast
3:53 PM 28.0°F 6.1°F 39% 30.12 in 10.0 miles WSW 9.2 mph - N/A   Overcast
4:53 PM 28.0°F 9.0°F 45% 30.10 in 10.0 miles WSW 11.5 mph - N/A   Overcast
5:53 PM 27.0°F 10.0°F 49% 30.09 in 10.0 miles WSW 8.1 mph - N/A   Mostly Cloudy
6:53 PM 27.0°F 10.9°F 51% 30.09 in 10.0 miles West 8.1 mph - N/A   Overcast
7:53 PM 26.1°F 14.0°F 60% 30.09 in 9.0 miles WSW 8.1 mph - N/A   Overcast
8:53 PM 25.0°F 18.0°F 75% 30.09 in 3.0 miles WSW 5.8 mph - 0.00 in Snow Light Snow
9:19 PM 24.8°F 19.4°F 80% 30.09 in 2.5 miles WSW 5.8 mph - 0.00 in Snow Light Snow
9:34 PM 24.8°F 21.2°F 86% 30.09 in 2.5 miles SSW 5.8 mph - 0.00 in Snow Light Snow
9:53 PM 24.1°F 21.0°F 88% 30.08 in 2.5 miles SW 5.8 mph - 0.00 in Snow Light Snow
10:11 PM 24.8°F 21.2°F 86% 30.08 in 3.0 miles SW 3.5 mph - 0.00 in Snow Light Snow
10:41 PM 24.8°F 21.2°F 86% 30.06 in 2.0 miles Calm Calm - 0.00 in Snow Light Snow
10:53 PM 24.1°F 21.0°F 88% 30.05 in 3.0 miles SSW 4.6 mph - 0.00 in Snow Light Snow
Astronomy
Sunrise:07:07 AM (EST) Moon Rise:No Moon Rise/
Sunset:05:19 PM (EST) Moon Set:10:15 AM (EST)2/2
Moon Phase
Feb. 02 Feb. 03 Feb. 10 Feb. 17 Feb. 25

Copyright © 2014 The Weather Underground, Inc.